[[{"header":{"parameterUnit":"m.s-1","parameterCategory":1,"la1":30.2991,"la2":30.254,"lo1":-89.0895,"lo2":-89.0444,"dy":0.0017,"dx":0.0017,"nx":28,"ny":28,"refTime":"2026-02-16T09:00:00:Z","depth":0,"parameterNumber":2,"parameterNumberName":"U-component_of_WINDS"},"data":[0,0,0,0,0,0,0,0,0,0,0,0,0,0,0,0,0,0,0,0,0,0,0,0,0,0,0,0,0,0,0,0,0,0,0,0,0,0,0,0,0,0,0,0,0,0,0,0,0,0,0,0,0,0,0,0,0,0,-1.3253,-1.3253,0,-1.3254,-1.3254,-1.3254,-1.322,-1.3219,-1.3218,-1.3217,-1.322,-1.3221,-1.3222,0,0,0,0,0,0,0,0,0,0,0,0,0,-1.3222,-1.3223,-1.3253,-1.3253,-1.3253,-1.3254,-1.3254,-1.3254,-1.322,-1.3219,-1.3218,-1.3217,-1.322,-1.3221,-1.3222,0,0,0,0,0,0,0,0,0,0,0,0,0,-1.3231,-1.3223,-1.3253,-1.3236,-1.3234,-1.3254,-1.3254,-1.3254,-1.322,-1.3219,-1.3217,-1.3216,-1.3219,-1.3221,-1.3222,-1.3258,0,0,-1.3226,-1.3227,0,0,0,0,0,0,0,0,-1.323,-1.3232,-1.3238,-1.3237,-1.3235,-1.3235,-1.3244,-1.3255,-1.3221,-1.3226,-1.3217,-1.3216,-1.3226,-1.3227,-1.323,-1.3258,-1.3258,-1.3226,-1.3227,-1.3228,-1.3228,0,0,0,0,0,0,0,-1.323,-1.3232,-1.3253,-1.3238,-1.3237,-1.3229,-1.3228,-1.3246,-1.3234,-1.3225,-1.3223,-1.3223,-1.3225,-1.3229,-1.323,-1.3258,-1.3226,-1.3228,-1.3228,-1.3229,-1.3316,-1.3317,0,0,0,0,0,0,-1.3231,-1.3231,-1.3253,-1.3253,-1.3229,-1.323,-1.323,-1.3237,-1.3233,-1.3232,-1.3224,-1.3222,-1.3227,-1.3229,-1.323,-1.3272,-1.3228,-1.3229,-1.323,-1.3315,-1.3316,-1.3318,0,0,0,0,0,0,-1.3231,-1.3233,-1.3253,-1.3242,-1.3243,-1.3232,-1.324,-1.3237,-1.3241,-1.3233,-1.3231,-1.323,-1.3226,-1.3228,-1.3251,-1.3272,-1.323,-1.3231,-1.3313,-1.3315,-1.3317,-1.3357,0,0,0,0,0,0,-1.323,-1.3233,-1.3247,-1.3242,-1.3244,-1.3274,-1.3241,-1.3238,-1.3243,-1.324,-1.3238,-1.3236,-1.3225,-1.3249,-1.3253,-1.3273,-1.3232,-1.3311,-1.3314,-1.3316,-1.3354,-1.3361,-1.3366,0,0,0,0,0,-1.3229,-1.3258,-1.3248,-1.325,-1.326,-1.3275,-1.3276,-1.3263,-1.3245,-1.3259,-1.3253,-1.3236,-1.3269,-1.3252,-1.3255,-1.3277,-1.331,-1.3313,-1.3316,-1.3351,-1.3359,-1.3366,0,0,0,0,0,0,-1.3266,-1.3257,-1.3245,-1.3274,-1.3276,-1.3269,-1.3286,-1.3272,-1.3279,-1.3275,-1.3258,-1.3258,-1.3284,-1.3282,-1.3264,-1.3311,-1.3286,-1.329,-1.3312,-1.3319,-1.3325,-1.3325,-1.3233,0,0,0,0,0,-1.3278,-1.329,-1.3282,-1.3308,-1.3309,-1.3297,-1.3303,-1.3293,-1.3294,-1.3294,-1.3291,-1.3293,-1.3304,-1.3311,-1.3321,-1.3353,-1.3353,-1.3369,-1.3376,-1.3381,-1.3385,-1.3402,-1.341,-1.3329,-1.3329,-1.3329,0,0,-1.3302,-1.3298,-1.3307,-1.3315,-1.3315,-1.3329,-1.3298,-1.3314,-1.3324,-1.3297,-1.3319,-1.3316,-1.3317,-1.3346,-1.3358,-1.3345,-1.3407,-1.3385,-1.3389,-1.339,-1.3407,-1.3414,-1.3421,-1.3331,-1.3331,-1.333,0,0,-1.3353,-1.3351,-1.3373,-1.3373,-1.3373,-1.3365,-1.337,-1.3366,-1.3364,-1.3385,-1.3365,-1.3377,-1.3395,-1.3397,-1.3401,-1.3452,-1.3437,-1.3455,-1.3487,-1.3505,-1.3511,-1.3517,-1.3536,-1.3543,-1.3459,-1.3459,-1.346,0,-1.3383,-1.3402,-1.3386,-1.3403,-1.3407,-1.3382,-1.3405,-1.3406,-1.3409,-1.3413,-1.3398,-1.3421,-1.3421,-1.3449,-1.3462,-1.3465,-1.3471,-1.3456,-1.3511,-1.3517,-1.3522,-1.354,-1.3547,-1.3462,-1.3462,-1.3461,-1.3461,0,-1.3439,-1.3453,-1.347,-1.3474,-1.348,-1.35,-1.3487,-1.3495,-1.3484,-1.3477,-1.35,-1.3497,-1.3506,-1.3512,-1.3501,-1.3539,-1.3531,-1.3514,-1.3489,-1.3532,-1.3549,-1.3556,-1.3465,-1.3464,-1.3464,-1.3463,0,0,-1.3515,-1.3508,-1.3515,-1.3517,-1.3515,-1.3525,-1.3544,-1.3552,-1.3559,-1.3562,-1.3578,-1.3594,-1.3578,-1.3582,-1.3571,-1.3586,-1.3628,-1.3568,-1.3567,-1.358,-1.367,-1.3684,-1.3692,-1.3617,-1.3619,-1.3619,-1.367,0,-1.3565,-1.3596,-1.3581,-1.3614,-1.3627,-1.3603,-1.3619,-1.362,-1.3615,-1.3625,-1.3619,-1.3631,-1.3609,-1.3611,-1.3625,-1.362,-1.3646,-1.3616,-1.3632,-1.3633,-1.3634,-1.37,-1.3715,-1.3763,-1.3677,-1.3678,-1.3679,0,-1.3627,-1.3633,-1.3667,-1.3662,-1.3667,-1.3682,-1.3688,-1.3698,-1.3699,-1.3693,-1.3698,-1.3683,-1.3702,-1.3675,-1.3701,-1.368,-1.3686,-1.3685,-1.3686,-1.3688,-1.3659,-1.3705,-1.3778,-1.3786,-1.3689,-1.3688,-1.3687,0,-1.368,-1.3696,-1.3718,-1.372,-1.3715,-1.3726,-1.3725,-1.3724,-1.373,-1.3735,-1.3739,-1.3746,-1.3751,-1.3757,-1.3745,-1.3727,-1.3773,-1.3745,-1.377,-1.377,-1.3781,-1.3781,-1.3857,-1.3783,-1.3783,-1.3783,-1.3783,0,-1.3738,-1.376,-1.3742,-1.3756,-1.3779,-1.3763,-1.3787,-1.3783,-1.3782,-1.3796,-1.3775,-1.3788,-1.3771,-1.3783,-1.3773,-1.3796,-1.3798,-1.3795,-1.3793,-1.3797,-1.3798,-1.3802,-1.3799,-1.3785,-1.3785,-1.3784,-1.3784,0,-1.3802,-1.379,-1.3813,-1.3806,-1.3805,-1.3823,-1.3818,-1.3831,-1.3823,-1.384,-1.3843,-1.3832,-1.3844,-1.3833,-1.3845,-1.3838,-1.3869,-1.3861,-1.3869,-1.3867,-1.3892,-1.3891,-1.3974,-1.3985,-1.3904,-1.3905,-1.3905,0,-1.384,-1.3856,-1.3851,-1.3858,-1.3858,-1.387,-1.3875,-1.3859,-1.3866,-1.3868,-1.3881,-1.3891,-1.3898,-1.3919,-1.3913,-1.3921,-1.3914,-1.3943,-1.3915,-1.392,-1.3916,-1.3915,-1.3917,-1.3949,-1.395,-1.3951,-1.3951,0,-1.391,-1.3903,-1.3911,-1.3918,-1.3925,-1.393,-1.3933,-1.394,-1.3923,-1.3932,-1.3944,-1.395,-1.3961,-1.3972,-1.3979,-1.3978,-1.3962,-1.396,-1.3966,-1.3972,-1.3976,-1.3975,-1.3885,-1.3958,-1.3958,-1.3957,-1.3957,-1.3956,-1.3962,-1.3976,-1.3974,-1.3985,-1.3985,-1.3988,-1.4,-1.3994,-1.4003,-1.4011,-1.4001,-1.4016,-1.4016,-1.4024,-1.4024,-1.4036,-1.4024,-1.4033,-1.4035,-1.4038,-1.4042,-1.3973,-1.4037,-1.4037,-1.4037,-1.4037,-1.4036,0,-1.4031,-1.4029,-1.4039,-1.4043,-1.4052,-1.4035,-1.4038,-1.4046,-1.4059,-1.406,-1.4068,-1.4081,-1.4092,-1.4086,-1.4094,-1.4105,-1.4098,-1.4108,-1.4108,-1.4108,-1.4052,-1.4046,-1.4113,-1.4113,-1.4113,-1.4113,-1.4113,-1.4113,-1.4069,-1.4091,-1.4084,-1.4106,-1.4103,-1.4118,-1.412,-1.4124,-1.4124,-1.4141,-1.4149,-1.4144,-1.4143,-1.4151,-1.416,-1.4158,-1.4162,-1.4175,-1.4171,-1.4119,-1.4112,-1.4104,-1.4099,-1.4176,-1.4176,-1.4225,-1.4226,-1.4226]},{"header":{"parameterUnit":"m.s-1","parameterCategory":1,"la1":30.2991,"la2":30.254,"lo1":-89.0895,"lo2":-89.0444,"dy":0.0017,"dx":0.0017,"nx":28,"ny":28,"refTime":"2026-02-16T09:00:00:Z","depth":0,"parameterNumber":3,"parameterNumberName":"V-component_of_WINDS"},"data":[0,0,0,0,0,0,0,0,0,0,0,0,0,0,0,0,0,0,0,0,0,0,0,0,0,0,0,0,0,0,0,0,0,0,0,0,0,0,0,0,0,0,0,0,0,0,0,0,0,0,0,0,0,0,0,0,0,0,-4.2171,-4.2172,0,-4.2252,-4.2253,-4.2254,-4.2225,-4.2223,-4.2222,-4.222,-4.23,-4.2303,-4.2307,0,0,0,0,0,0,0,0,0,0,0,0,0,-4.1987,-4.199,-4.2171,-4.2172,-4.2173,-4.2252,-4.2253,-4.2254,-4.2226,-4.2223,-4.2221,-4.2219,-4.2298,-4.2303,-4.2307,0,0,0,0,0,0,0,0,0,0,0,0,0,-4.2067,-4.1991,-4.2171,-4.2168,-4.2169,-4.2252,-4.2253,-4.2255,-4.2226,-4.2223,-4.2221,-4.2218,-4.2297,-4.2302,-4.2308,-4.2398,0,0,-4.2326,-4.2328,0,0,0,0,0,0,0,0,-4.2063,-4.2074,-4.2167,-4.2168,-4.2169,-4.2226,-4.2218,-4.2303,-4.2227,-4.2204,-4.222,-4.2217,-4.2277,-4.2284,-4.2305,-4.2401,-4.2405,-4.2326,-4.2329,-4.2332,-4.2334,0,0,0,0,0,0,0,-4.2057,-4.207,-4.2203,-4.2169,-4.217,-4.2162,-4.217,-4.2234,-4.2255,-4.2206,-4.2204,-4.2214,-4.2277,-4.23,-4.2307,-4.2406,-4.2326,-4.2331,-4.2334,-4.2337,-4.258,-4.2583,0,0,0,0,0,0,-4.2051,-4.2066,-4.22,-4.2205,-4.2108,-4.2167,-4.2177,-4.221,-4.2254,-4.2258,-4.2217,-4.2213,-4.2292,-4.23,-4.231,-4.2418,-4.2332,-4.2337,-4.2341,-4.2577,-4.2581,-4.2584,0,0,0,0,0,0,-4.2048,-4.2064,-4.2197,-4.2135,-4.2152,-4.2173,-4.2211,-4.2213,-4.2236,-4.2262,-4.2265,-4.2236,-4.229,-4.2302,-4.2376,-4.2421,-4.234,-4.2345,-4.2573,-4.2578,-4.2582,-4.2636,0,0,0,0,0,0,-4.2042,-4.2063,-4.2098,-4.2136,-4.2155,-4.2264,-4.2214,-4.2217,-4.2247,-4.2243,-4.2282,-4.2285,-4.2289,-4.2368,-4.2382,-4.2427,-4.2349,-4.257,-4.2576,-4.2581,-4.263,-4.2642,-4.2651,0,0,0,0,0,-4.2036,-4.2108,-4.21,-4.2116,-4.2199,-4.2266,-4.2277,-4.228,-4.2251,-4.2286,-4.2302,-4.2284,-4.2413,-4.2376,-4.2392,-4.2439,-4.2567,-4.2574,-4.258,-4.2625,-4.2639,-4.2651,0,0,0,0,0,0,-4.2073,-4.2113,-4.2104,-4.2191,-4.2226,-4.2261,-4.2306,-4.2295,-4.2337,-4.2331,-4.2332,-4.2341,-4.2419,-4.2436,-4.2394,-4.2528,-4.2485,-4.2496,-4.2514,-4.2528,-4.2538,-4.2533,-4.2354,0,0,0,0,0,-4.2091,-4.2144,-4.2175,-4.2249,-4.2267,-4.2284,-4.2313,-4.2313,-4.2348,-4.2362,-4.2384,-4.2417,-4.2466,-4.2497,-4.2543,-4.2632,-4.264,-4.2672,-4.2683,-4.2691,-4.2701,-4.275,-4.2765,-4.2606,-4.2606,-4.2606,0,0,-4.213,-4.2158,-4.2191,-4.2257,-4.2284,-4.2337,-4.2296,-4.2354,-4.2393,-4.237,-4.2443,-4.246,-4.2498,-4.258,-4.2618,-4.2597,-4.2746,-4.27,-4.2707,-4.2711,-4.2758,-4.2773,-4.2787,-4.2611,-4.261,-4.261,0,0,-4.2227,-4.2254,-4.2319,-4.2347,-4.2388,-4.2399,-4.2415,-4.2452,-4.2463,-4.2537,-4.2521,-4.2567,-4.265,-4.2678,-4.2703,-4.2811,-4.2797,-4.2826,-4.2882,-4.2929,-4.2942,-4.2953,-4.2993,-4.3007,-4.2835,-4.2835,-4.2835,0,-4.2269,-4.235,-4.2353,-4.2413,-4.2443,-4.2426,-4.2492,-4.2518,-4.2572,-4.2592,-4.2569,-4.2673,-4.2697,-4.2787,-4.2814,-4.2834,-4.2852,-4.2822,-4.294,-4.2951,-4.2962,-4.2999,-4.3014,-4.2838,-4.2838,-4.2837,-4.2837,0,-4.24,-4.2456,-4.2504,-4.2558,-4.2593,-4.2655,-4.2667,-4.2702,-4.2699,-4.2711,-4.2786,-4.2815,-4.2866,-4.2887,-4.2884,-4.2976,-4.2962,-4.2939,-4.2897,-4.298,-4.3016,-4.303,-4.2843,-4.2842,-4.2841,-4.284,0,0,-4.2523,-4.258,-4.2597,-4.2622,-4.2667,-4.271,-4.2771,-4.2823,-4.2853,-4.2891,-4.2942,-4.3013,-4.2993,-4.3021,-4.302,-4.3062,-4.3148,-4.3034,-4.3035,-4.3055,-4.3253,-4.3271,-4.3287,-4.3138,-4.3141,-4.3143,-4.325,0,-4.2625,-4.2735,-4.274,-4.2839,-4.2891,-4.2876,-4.293,-4.2962,-4.2976,-4.3021,-4.3035,-4.3086,-4.3054,-4.3072,-4.3112,-4.3129,-4.3188,-4.3121,-4.3185,-4.3188,-4.3178,-4.3306,-4.3325,-4.3424,-4.3264,-4.3266,-4.3268,0,-4.2759,-4.2803,-4.2908,-4.2947,-4.2969,-4.3017,-4.3066,-4.3109,-4.3146,-4.3152,-4.3185,-4.3178,-4.324,-4.3195,-4.328,-4.3235,-4.3261,-4.3273,-4.3277,-4.3284,-4.3234,-4.3317,-4.3456,-4.3472,-4.3289,-4.3288,-4.3286,0,-4.284,-4.2925,-4.2999,-4.3021,-4.3067,-4.3102,-4.3122,-4.3156,-4.3188,-4.3229,-4.325,-4.3297,-4.3324,-4.336,-4.3367,-4.3333,-4.3452,-4.3407,-4.346,-4.346,-4.3486,-4.3485,-4.3633,-4.3502,-4.3501,-4.3501,-4.3501,0,-4.2954,-4.3019,-4.3037,-4.3082,-4.3155,-4.3159,-4.323,-4.3248,-4.3279,-4.3327,-4.3315,-4.3361,-4.3366,-4.3412,-4.3417,-4.3488,-4.3499,-4.3506,-4.3507,-4.3508,-4.3507,-4.3526,-4.352,-4.3505,-4.3504,-4.3503,-4.3503,0,-4.3057,-4.3071,-4.3151,-4.3189,-4.32,-4.3252,-4.3284,-4.3327,-4.334,-4.3401,-4.3415,-4.3434,-4.3489,-4.3499,-4.3562,-4.3565,-4.3649,-4.3642,-4.3638,-4.3637,-4.369,-4.3685,-4.3856,-4.3878,-4.3731,-4.3733,-4.3734,0,-4.313,-4.318,-4.3224,-4.3256,-4.3279,-4.3331,-4.3363,-4.3369,-4.3403,-4.3449,-4.3487,-4.354,-4.3584,-4.3671,-4.3689,-4.3738,-4.3732,-4.3789,-4.374,-4.374,-4.3735,-4.3732,-4.3738,-4.3799,-4.38,-4.3802,-4.3803,0,-4.3257,-4.3262,-4.331,-4.3361,-4.3401,-4.344,-4.3478,-4.3505,-4.3515,-4.3554,-4.361,-4.3644,-4.371,-4.3763,-4.3811,-4.3831,-4.3819,-4.3818,-4.3833,-4.3835,-4.3831,-4.3835,-4.3665,-4.3814,-4.3813,-4.3812,-4.3812,-4.3811,-4.3348,-4.3392,-4.3431,-4.3485,-4.3514,-4.355,-4.3593,-4.3611,-4.3659,-4.3714,-4.3714,-4.3776,-4.3811,-4.3875,-4.3898,-4.3946,-4.3928,-4.3949,-4.3954,-4.396,-4.3966,-4.3823,-4.3954,-4.3954,-4.3954,-4.3953,-4.3953,0,-4.3476,-4.35,-4.355,-4.3604,-4.3647,-4.3633,-4.3674,-4.371,-4.3765,-4.38,-4.3843,-4.3908,-4.3959,-4.3982,-4.4033,-4.4067,-4.4063,-4.408,-4.4078,-4.4083,-4.3978,-4.3961,-4.4083,-4.4083,-4.4083,-4.4083,-4.4083,-4.4082,-4.3548,-4.3623,-4.3632,-4.3721,-4.3744,-4.3806,-4.3831,-4.3864,-4.3892,-4.3965,-4.4009,-4.4024,-4.4054,-4.4107,-4.4153,-4.4158,-4.4178,-4.4198,-4.4201,-4.4103,-4.409,-4.4078,-4.4062,-4.4202,-4.4202,-4.4302,-4.4303,-4.4304]}]]